393  
SXUS52 KCHS 221727  
OSOCHS  
 
MARINE OBSERVATIONS  
NATIONAL WEATHER SERVICE CHARLESTON SC  
100 PM EDT TUE MAY 22 2018  
   
..DOWNTOWN CHARLESTON AND HARBOR
 
 
 
CITY SKY/WX TMP DP RH WIND PRES REMARKS  
WATERFRONT PRK N/A 79 72 79 SE12 29.99F  
   
..LAKE MOULTRIE
 
 
 
CITY SKY/WX TMP DP RH WIND PRES REMARKS  
PINOPOLIS N/A 75 68 78 VRB3 30.09R  
   
..LAKE AND SUPPLEMENTAL COASTAL OBSERVATIONS
 
 
 
STATION/POSITION TIME TEMP WIND PRES WAVE SWELL  
AIR SEA DIR/SP/G HT/PER HT/PER/DIR  
(UTC) (F) (DEG/KT/KT) (MB) (FT/S) (FT/S/D)  
FORT PULASKI 1700 76 78 200/ 10/ 15 1021.1  
SAPELO ISLAND 1700 77 130/ 6 1020.0  
WINYAH BAY 1645 80 150/ 11 1021.0F  
LAKE MURRAY NOT AVBL  
ACE BASIN NERRS 1645 79 150/ 2 1021.0S  
 
   
..C-MAN AND BUOY OBSERVATIONS
 
 
 
STATION/POSITION TIME TEMP WIND PRES WAVE SWELL  
AIR SEA DIR/SP/G HT/PER HT/PER/DIR  
(UTC) (F) (DEG/KT/KT) (MB) (FT/S) (FT/S/D)  
BUOY 41004 1710 76 150/ 8/ 12 1021.2  
BUOY 41008 1650 74 75 150/ 8/ 8 1020.3F 4/ 9 3/130/ 9  
FOLLY BEACH CMAN 1700 77 160/ 11/ 12 1021.6F  
PRITCHARDS ISLAN NOT AVBL  
CAPERS NS BUOY 1708 77 78 180/ 8/ 12 1021.7F  
FRIPP NS BUOY 1708 76 78 190/ 8/ 10 1020.5F  
5E ST. MARYS GA 1700 75 N/A 4/ 8  
 
 
STATION/POSITION TIME TEMP WIND PRES WAVE SWELL  
AIR SEA DIR/SP/G HT/PER HT/PER/DIR  
(UTC) (F) (DEG/KT/KT) (MB) (FT/S) (FT/S/D)  
FRYING PAN BUOY 1710 75 76 270/ 6/ 8 1021.7  
BUOY 41025 1710 75 74 230/ 12/ 14 1021.3  
CAPE LOOKOUT NC 1700 220/ 9/ 13 1021.7F  
BUOY 41002 1710 77 170/ 10/ 12 1022.5  
BUOY 41010 1710 77 77 130/ 12/ 16 1021.7  
ST AUGUSTINE FL 1700 77 78 140/ 11/ 12 1020.1F  
 

 
 
 
CLICK HERE TO GO TO PREVIOUS BULLETINS.

The Nexlab SC Page
The Nexlab GA Page Main Text Page